| time (UTC) | temp F | wind direction | speed MPH | gust MPH | rain 1hr in | rain 24hr in | rain mn in | humidity % | barometer mb |
| 20260505095201 | 59 | 0 | 0.0 | 0.0 | 0.00 | 0.00 | 0.00 | 66 | 1024.8 |
| 20260505041231 | 60 | 180 | 1.0 | 6.0 | 0.00 | 0.00 | 0.00 | 67 | 1022.2 |
| 20260505035049 | 60 | 141 | 2.0 | 7.0 | 0.00 | 0.00 | 0.00 | 65 | 1022.3 |
| 20260505034049 | 60 | 186 | 2.0 | 6.0 | 0.00 | 0.00 | 0.00 | 64 | 1022.3 |
| 20260505033111 | 60 | 194 | 2.0 | 10.0 | 0.00 | 0.00 | 0.00 | 64 | 1022.3 |
| 20260505032131 | 61 | 192 | 1.0 | 10.0 | 0.00 | 0.00 | 0.00 | 62 | 1022.2 |
| 20260505031141 | 61 | 250 | 1.0 | 5.0 | 0.00 | 0.00 | 0.00 | 61 | 1022.2 |
| 20260505030134 | 61 | 182 | 0.0 | 4.0 | 0.00 | 0.00 | 0.00 | 62 | 1022.2 |
| 20260505024008 | 61 | 292 | 1.0 | 7.0 | 0.00 | 0.00 | 0.00 | 61 | 1022.5 |
| 20260505022959 | 61 | 273 | 1.0 | 7.0 | 0.00 | 0.00 | 0.00 | 62 | 1022.5 |
| 20260505021930 | 62 | 326 | 2.0 | 8.0 | 0.00 | 0.00 | 0.00 | 61 | 1022.6 |
| 20260505020918 | 62 | 263 | 2.0 | 8.0 | 0.00 | 0.00 | 0.00 | 63 | 1022.6 |
| 20260505015843 | 61 | 284 | 1.0 | 7.0 | 0.00 | 0.00 | 0.00 | 65 | 1022.8 |
| 20260505014839 | 59 | 248 | 2.0 | 8.0 | 0.00 | 0.00 | 0.00 | 66 | 1022.9 |
| 20260505012731 | 59 | 209 | 2.0 | 8.0 | 0.00 | 0.00 | 0.00 | 66 | 1023.1 |
| 20260505011752 | 59 | 229 | 2.0 | 9.0 | 0.00 | 0.00 | 0.00 | 66 | 1022.9 |
| 20260505005629 | 59 | 255 | 2.0 | 9.0 | 0.00 | 0.00 | 0.00 | 68 | 1022.8 |
| 20260505004557 | 59 | 273 | 2.0 | 5.0 | 0.00 | 0.00 | 0.00 | 68 | 1022.8 |
| 20260505004004 | 59 | 208 | 1.0 | 7.0 | 0.00 | 0.00 | 0.00 | 68 | 1022.7 |
| 20260505002942 | 59 | 267 | 2.0 | 11.0 | 0.00 | 0.00 | 0.00 | 70 | 1022.7 |
| 20260505001938 | 58 | 121 | 2.0 | 11.0 | 0.00 | 0.00 | 0.00 | 71 | 1022.5 |
| 20260505001933 | 58 | 189 | 2.0 | 11.0 | 0.00 | 0.00 | 0.00 | 71 | 1022.5 |
| 20260504130417 | 58 | 312 | 3.0 | 9.0 | 0.00 | 0.01 | 0.01 | 77 | 1015.8 |
| 20260504110406 | 59 | 325 | 6.0 | 12.0 | 0.00 | 0.01 | 0.01 | 79 | 1014.5 |